Regional Weather Roundup
Issued by NWS

Home | Current Version | Previous Version | Text Only | Print | Product List | Glossary On
Versions: 1 2 3 4 5 6 7 8 9 10 11 12 13 14 15 16 17 18 19 20 21 22 23 24 25 26 27 28 29 30 31 32 33 34 35 36 37 38 39 40 41 42 43 44 45 46 47 48 49 50
000
ASUS43 KDTX 291510
RWRMI
MICHIGAN HOURLY REGIONAL WEATHER ROUNDUP
NATIONAL WEATHER SERVICE DETROIT/PONTIAC MI
1000 AM EST THU JAN 29 2015

NOTE: "FAIR" INDICATES FEW OR NO CLOUDS BELOW 12,000 FEET WITH NO
SIGNIFICANT WEATHER AND/OR OBSTRUCTION TO VISIBILITY.

MIZ047>049-052>055-059>063-066>070-074>076-081>083-291600-
SOUTHEAST LOWER MICHIGAN

CITY           SKY/WX    TMP DP  RH WIND       PRES   REMARKS
ADRIAN         CLOUDY    31  25  78 S5        29.75F WCI  26
ALMA           LGT SNOW  28  25  87 CALM      29.75S
ANN ARBOR      CLOUDY    30  25  81 SE3       29.75F
BAD AXE        FLURRIES  26  22  83 S10       29.77F WCI  17
CARO           FLURRIES  27  23  83 S5        29.76F WCI  22
DETROIT CITY   CLOUDY    33  22  63 S6        29.78F WCI  28
DETROIT        CLOUDY    31  24  75 SE5       29.78F WCI  26
FLINT          CLOUDY    32  22  66 S8        29.75F WCI  25
GROSSE ILE     CLOUDY    32  27  80 S7        29.76F WCI  26
HILLSDALE      CLOUDY    31  27  85 S6        29.71F WCI  25
HOWELL         CLOUDY    29  24  82 SE7       29.73F WCI  22

CITY           SKY/WX    TMP DP  RH WIND       PRES   REMARKS
JACKSON        CLOUDY    31  24  75 S7        29.72F WCI  24
LAMBERTVILLE   CLOUDY    34  27  75 CALM      29.76F
LANSING        CLOUDY    31  25  78 S7        29.73F WCI  24
LAPEER         CLOUDY    28  20  71 S8        29.76F WCI  20
MASON          CLOUDY    30  24  77 S8        29.72F WCI  22
MONROE         CLOUDY    34  27  75 S6        29.75F WCI  29
MT. CLEMENS    CLOUDY    30  24  78 SE7       29.76F WCI  23
PONTIAC        CLOUDY    29  21  72 S6        29.74F WCI  23
PORT HOPE        N/A     26  22  84 S9        29.76F WCI  17
PORT HURON     CLOUDY    30  21  69 SE7       29.78F WCI  23
TRI CITIES     LGT SNOW  30  23  75 CALM      29.77S
TROY           CLOUDY    32  21  64 SE3       29.78F
SAGINAW HB     CLOUDY    30  25  80 CALM      29.76S
$$
MIZ043>046-050>051-056>058-064>065-071>073-077>080-291600-
SOUTHWEST LOWER MICHIGAN

CITY           SKY/WX    TMP DP  RH WIND       PRES   REMARKS
BATTLE CREEK   CLOUDY    34  25  69 S5        29.72F WCI  30
BENTON HARBOR  CLOUDY    34  30  85 W9        29.75R WCI  27
BIG RAPIDS     LGT SNOW  26  25  97 CALM      29.75S
COLDWATER      CLOUDY    33  26  76 S5        29.72S WCI  29
FREMONT        LGT SNOW  28  25  87 CALM      29.76S
HOLLAND        CLOUDY    34  27  75 CALM      29.75R
GRAND RAPIDS   CLOUDY    30  27  88 N5        29.74S FOG     WCI  25
IONIA          MIX PCPN  31  28  90 CALM      29.73S
KALAMAZOO      CLOUDY    33  26  75 S5        29.72S WCI  29
LUDINGTON      LGT SNOW  31  28  88 CALM      29.79S VSB 1
MARSHALL       CLOUDY    33  26  75 CALM      29.71F
MOUNT PLEASANT LGT SNOW  26  24  91 N5        29.76S WCI  21
MUSKEGON       LGT SNOW  31  25  78 N5        29.77R WCI  26
SOUTH HAVEN    CLOUDY    33  30  89 CALM      29.74R
$$
MIZ016>042-291600-
NORTHERN LOWER MICHIGAN

CITY           SKY/WX    TMP DP  RH WIND       PRES   REMARKS
ALPENA         LGT SNOW  23  22  96 CALM      29.78S VSB 1
BEAVER ISLAND  CLOUDY    27  26  94 CALM      29.78S FOG
BELLAIRE       LGT SNOW  26  24  91 CALM      29.79F
CADILLAC       LGT SNOW  24  22  92 CALM      29.74R
CHARLEVOIX     SNOW      26  24  93 CALM      29.81S VSB 1/2
FRANKFORT      LGT SNOW  27  26  96 CALM      29.79S VSB 3/4
GAYLORD        LGT SNOW  22  22 100 SW5       29.74S FOG     WCI  16
GRAYLING       CLOUDY    23  22  95 CALM      29.76S FOG
HARBOR SPRINGS LGT SNOW  26  23  89 CALM      29.78S VSB 1
HOUGHTON LAKE  SNOW      24  21  88 CALM      29.75S VSB 1/2
MANISTEE       CLOUDY    27  25  93 CALM      29.80R VSB 3/4
OSCODA         LGT SNOW  25  24  94 SW5       29.77F WCI  20
PELLSTON       LGT SNOW  25  23  92 CALM      29.79S VSB 3/4
ROGERS CITY    LGT SNOW  25  23  93 CALM      29.80S
TRAVERSE CITY  LGT SNOW  26  23  88 CALM      29.78R FOG
$$
MIZ007>008-015-291600-
EASTERN UPPER MICHIGAN

CITY           SKY/WX    TMP DP  RH WIND       PRES   REMARKS
KINROSS        CLOUDY    27  23  86 CALM      29.77F
MACKINAC ISLAN LGT SNOW  25  25  98 CALM      29.77F VSB 3/4
NEWBERRY       CLOUDY    25  24  97 W5        29.76S WCI  19
S. S. MARIE    LGT SNOW  24  21  88 SE3       29.77F FOG
MUNISING         N/A     33  28  81 NW15G23   29.79R WCI  23
$$
MIZ004>006-011>014-085-291600-
CENTRAL UPPER MICHIGAN

CITY           SKY/WX    TMP DP  RH WIND       PRES   REMARKS
MANISTIQUE     CLOUDY    29  28  94 NW7       29.78S WCI  22
ESCANABA       CLOUDY    30  25  80 NW9G16    29.82R WCI  22
MENOMINEE      CLOUDY    30  25  80 N9        29.83R WCI  22
SAWYER-GWINN   CLOUDY    28  25  86 N21G29    29.79R WCI  15
$$
MIZ001>003-009>011-084-291600-
WESTERN UPPER MICHIGAN

CITY           SKY/WX    TMP DP  RH WIND       PRES   REMARKS
IRON MOUNTAIN  CLOUDY    29  23  78 N24G31    29.83R WCI  15
HOUGHTON       CLOUDY    30  22  72 NW24G31   29.86R WCI  16
COPPER HARBOR    N/A     26  21  81 NE29G44   29.87R WCI  10
IRONWOOD       CLOUDY    28  25  86 NW20G26   29.94R WCI  15
$$

ABBREVIATIONS USED IN REMARKS
   TC - TEMPERATURE IN CELSIUS
  WCI - WIND CHILL INDEX
   HX - HEAT INDEX
  VSB - VISIBILITY




USA.gov is the U.S. government's official web portal to all federal, state and local government web resources and services.